QR8500 LIRF-GMMN

Flight info

Callsign QR8500
Flight time 2h 15m
Altitude 35000
Route ESINO DCT ABIDU DCT EPIKU/N0476F360 DCT GINOX DCT KIFMI DCT ELVOP DCT MUREN/N0479F350 M601 BCN/N0481F370 DCT ANTON DCT XIKEN DCT OSLAP DCT SALAS DCT RAMON DCT NEXAS DCT DISVU DCT ADUXO N975 CJN L27 BLN DCT MGA DCT PIMOS DCT GALTO UB11 TUSOR
Aircraft B77L/H-SDE1E2E3FGHIJ2J3J4J5M1RWXY/LB1D1

Departure

Time 2026-05-05 20:29
Airport Rome–Fiumicino Leonardo da Vinci International Airport (LIRF)

Arrival

Time 2026-05-05 22:45
Airport Mohammed V International Airport (GMMN)
Time Latitude Longitude Altitude Speed Heading
2026-05-05 19:49 41.79458 12.24120 19 ft 0 kts 26°
2026-05-05 20:18 41.79454 12.24117 19 ft 2 kts 25°
2026-05-05 20:18 41.79439 12.24108 23 ft 2 kts 25°
2026-05-05 20:18 41.79424 12.24098 23 ft 2 kts 25°
2026-05-05 20:19 41.79409 12.24088 23 ft 2 kts 27°
2026-05-05 20:19 41.79394 12.24078 24 ft 2 kts 26°
2026-05-05 20:19 41.79379 12.24069 24 ft 2 kts 24°
2026-05-05 20:19 41.79364 12.24060 24 ft 2 kts 19°
2026-05-05 20:20 41.79348 12.24056 23 ft 2 kts
2026-05-05 20:20 41.79331 12.24055 23 ft 2 kts 356°
2026-05-05 20:20 41.79316 12.24058 24 ft 2 kts 343°
2026-05-05 20:20 41.79312 12.24059 24 ft 0 kts 341°
2026-05-05 20:23 41.79356 12.24034 19 ft 21 kts 334°
2026-05-05 20:24 41.79540 12.23940 19 ft 31 kts 339°
2026-05-05 20:24 41.79669 12.23848 19 ft 17 kts 291°
2026-05-05 20:24 41.79697 12.23755 19 ft 17 kts 319°
2026-05-05 20:24 41.79826 12.23687 19 ft 24 kts 342°
2026-05-05 20:25 41.80004 12.23614 22 ft 27 kts 343°
2026-05-05 20:25 41.80188 12.23537 19 ft 28 kts 342°
2026-05-05 20:25 41.80438 12.23431 19 ft 28 kts 343°
2026-05-05 20:25 41.80561 12.23380 19 ft 28 kts 342°
2026-05-05 20:26 41.80747 12.23302 20 ft 28 kts 342°
2026-05-05 20:26 41.80933 12.23224 20 ft 28 kts 342°
2026-05-05 20:26 41.81120 12.23146 19 ft 28 kts 342°
2026-05-05 20:26 41.81306 12.23068 19 ft 28 kts 342°
2026-05-05 20:27 41.81488 12.22979 19 ft 28 kts 320°
2026-05-05 20:27 41.81539 12.22875 19 ft 0 kts 297°
2026-05-05 20:28 41.81551 12.22845 19 ft 7 kts 297°
2026-05-05 20:28 41.81553 12.22710 21 ft 23 kts 245°
2026-05-05 20:28 41.81407 12.22698 18 ft 27 kts 161°
2026-05-05 20:29 41.81070 12.22839 20 ft 93 kts 162°
2026-05-05 20:29 41.80115 12.23248 50 ft 189 kts 162°
2026-05-05 20:29 41.78798 12.23785 890 ft 200 kts 162°
2026-05-05 20:29 41.77441 12.24309 1670 ft 206 kts 165°
2026-05-05 20:30 41.76027 12.24686 2263 ft 215 kts 181°
2026-05-05 20:30 41.74568 12.23964 2550 ft 236 kts 219°
2026-05-05 20:30 41.73388 12.22442 3315 ft 237 kts 223°
2026-05-05 20:30 41.72198 12.20907 4100 ft 241 kts 223°
2026-05-05 20:31 41.70999 12.19378 5018 ft 237 kts 223°
2026-05-05 20:31 41.69857 12.17783 5816 ft 236 kts 230°
2026-05-05 20:31 41.68827 12.16015 6458 ft 248 kts 232°
2026-05-05 20:31 41.67787 12.14177 7254 ft 246 kts 232°
2026-05-05 20:32 41.66772 12.12398 8237 ft 238 kts 232°
2026-05-05 20:32 41.65728 12.10594 8685 ft 255 kts 232°
2026-05-05 20:32 41.64633 12.08723 9423 ft 256 kts 232°
2026-05-05 20:32 41.63520 12.06831 10122 ft 261 kts 232°
2026-05-05 20:33 41.62378 12.04896 10587 ft 275 kts 232°
2026-05-05 20:33 41.61030 12.02930 10703 ft 301 kts 222°
2026-05-05 20:33 41.59321 12.01103 10882 ft 328 kts 218°
2026-05-05 20:33 41.57421 11.99212 11124 ft 351 kts 218°
2026-05-05 20:34 41.55443 11.97233 11847 ft 359 kts 218°
2026-05-05 20:34 41.54343 11.96115 12284 ft 364 kts 218°
2026-05-05 20:36 41.54021 11.95786 12497 ft 352 kts 219°
2026-05-05 20:36 41.52130 11.93833 14144 ft 341 kts 219°
2026-05-05 20:36 41.50234 11.91853 14727 ft 356 kts 219°
2026-05-05 20:36 41.48229 11.89743 15029 ft 376 kts 219°
2026-05-05 20:37 41.46157 11.87558 15672 ft 384 kts 219°
2026-05-05 20:37 41.44069 11.85358 16489 ft 388 kts 219°
2026-05-05 20:37 41.41924 11.83101 17420 ft 389 kts 220°
2026-05-05 20:37 41.39939 11.80643 18155 ft 392 kts 230°
2026-05-05 20:38 41.38323 11.77702 18841 ft 396 kts 238°
2026-05-05 20:38 41.37046 11.74458 19585 ft 396 kts 248°
2026-05-05 20:38 41.36081 11.71005 20286 ft 399 kts 250°
2026-05-05 20:38 41.35152 11.67512 20935 ft 403 kts 250°
2026-05-05 20:39 41.34221 11.63985 21020 ft 404 kts 250°
2026-05-05 20:39 41.33286 11.60456 21202 ft 405 kts 250°
2026-05-05 20:39 41.32340 11.56920 21918 ft 407 kts 250°
2026-05-05 20:39 41.31381 11.53363 22671 ft 409 kts 249°
2026-05-05 20:40 41.30413 11.49799 23392 ft 411 kts 249°
2026-05-05 20:40 41.29433 11.46205 23988 ft 414 kts 249°
2026-05-05 20:40 41.28445 11.42601 24571 ft 416 kts 249°
2026-05-05 20:40 41.27450 11.38974 25180 ft 418 kts 250°
2026-05-05 20:41 41.26451 11.35340 25748 ft 420 kts 250°
2026-05-05 20:41 41.25442 11.31676 26316 ft 423 kts 250°
2026-05-05 20:41 41.24428 11.27997 26867 ft 425 kts 250°
2026-05-05 20:41 41.23407 11.24298 27404 ft 428 kts 250°
2026-05-05 20:42 41.22379 11.20581 27934 ft 430 kts 250°
2026-05-05 20:42 41.21344 11.16845 28450 ft 433 kts 250°
2026-05-05 20:42 41.20301 11.13082 28941 ft 435 kts 250°
2026-05-05 20:42 41.19249 11.09293 29394 ft 438 kts 250°
2026-05-05 20:43 41.18192 11.05492 29821 ft 441 kts 250°
2026-05-05 20:43 41.17127 11.01671 30254 ft 442 kts 250°
2026-05-05 20:43 41.16061 10.97851 30719 ft 441 kts 250°
2026-05-05 20:43 41.14997 10.94042 31186 ft 440 kts 249°
2026-05-05 20:44 41.13933 10.90241 31618 ft 440 kts 249°
2026-05-05 20:44 41.12867 10.86434 32036 ft 440 kts 249°
2026-05-05 20:44 41.11799 10.82630 32455 ft 439 kts 249°
2026-05-05 20:44 41.10734 10.78842 32868 ft 439 kts 249°
2026-05-05 20:45 41.08598 10.71257 33666 ft 439 kts 249°
2026-05-05 20:45 41.07528 10.67466 34044 ft 439 kts 249°
2026-05-05 20:45 41.06444 10.63631 34404 ft 438 kts 249°
2026-05-05 20:46 41.05391 10.59914 34778 ft 436 kts 249°
2026-05-05 20:46 41.04324 10.56151 35029 ft 438 kts 249°
2026-05-05 20:46 41.02158 10.48521 34991 ft 439 kts 249°
2026-05-05 20:47 41.00062 10.40991 34988 ft 434 kts 252°
2026-05-05 20:47 40.98756 10.33197 34998 ft 434 kts 260°
2026-05-05 20:48 40.98250 10.25233 34993 ft 435 kts 264°
2026-05-05 20:48 40.97882 10.17242 34985 ft 435 kts 264°
2026-05-05 20:49 40.97500 10.09246 34984 ft 435 kts 264°
2026-05-05 20:49 40.97097 10.01252 34987 ft 436 kts 264°
2026-05-05 20:50 40.96753 9.94605 34980 ft 436 kts 264°
2026-05-05 20:50 40.96261 9.85259 34983 ft 436 kts 264°
2026-05-05 20:51 40.95834 9.77268 34986 ft 435 kts 263°
2026-05-05 20:51 40.95403 9.69285 34991 ft 435 kts 263°
2026-05-05 20:52 40.94967 9.61315 34995 ft 434 kts 263°
2026-05-05 20:52 40.94525 9.53348 34997 ft 434 kts 263°
2026-05-05 20:53 40.94076 9.45348 34997 ft 433 kts 263°
2026-05-05 20:53 40.93627 9.37452 34996 ft 433 kts 263°
2026-05-05 20:54 40.93172 9.29540 34989 ft 433 kts 263°
2026-05-05 20:54 40.92706 9.21536 34975 ft 432 kts 263°
2026-05-05 20:55 40.92240 9.13620 34975 ft 432 kts 263°
2026-05-05 20:55 40.91768 9.05712 34968 ft 431 kts 263°
2026-05-05 20:56 40.91292 8.97802 34973 ft 432 kts 263°
2026-05-05 20:56 40.90891 8.91227 34971 ft 432 kts 263°
2026-05-05 20:57 40.90404 8.83319 34964 ft 432 kts 262°
2026-05-05 20:57 40.89912 8.75413 34973 ft 431 kts 262°
2026-05-05 20:58 40.89414 8.67509 34976 ft 431 kts 262°
2026-05-05 20:58 40.88911 8.59603 34974 ft 432 kts 262°
2026-05-05 20:59 40.88400 8.51648 34966 ft 432 kts 262°
2026-05-05 20:59 40.87886 8.43742 34965 ft 432 kts 262°
2026-05-05 21:00 40.87367 8.35837 34968 ft 432 kts 262°
2026-05-05 21:00 40.86842 8.27931 34967 ft 432 kts 262°
2026-05-05 21:01 40.86312 8.20020 34958 ft 432 kts 262°
2026-05-05 21:01 40.85805 8.12111 34973 ft 433 kts 264°
2026-05-05 21:02 40.85983 8.04132 34978 ft 436 kts 270°
2026-05-05 21:02 40.86422 7.96142 34964 ft 437 kts 271°
2026-05-05 21:03 40.86983 7.88151 34967 ft 437 kts 271°
2026-05-05 21:03 40.87558 7.80162 34971 ft 437 kts 271°
2026-05-05 21:04 40.88113 7.72174 34962 ft 436 kts 271°
2026-05-05 21:04 40.88652 7.64191 34960 ft 436 kts 271°
2026-05-05 21:05 40.89183 7.56212 34953 ft 436 kts 271°
2026-05-05 21:05 40.89707 7.48241 34956 ft 435 kts 270°
2026-05-05 21:06 40.90225 7.40285 34954 ft 434 kts 270°
2026-05-05 21:06 40.90741 7.32284 34947 ft 434 kts 270°
2026-05-05 21:07 40.91247 7.24343 34945 ft 433 kts 270°
2026-05-05 21:07 40.91747 7.16415 34941 ft 432 kts 270°
2026-05-05 21:08 40.92240 7.08503 34939 ft 432 kts 270°
2026-05-05 21:08 40.92728 7.00601 34938 ft 431 kts 270°
2026-05-05 21:09 40.93209 6.92704 34932 ft 430 kts 270°
2026-05-05 21:09 40.93684 6.84827 34932 ft 430 kts 270°
2026-05-05 21:10 40.94153 6.76957 34934 ft 429 kts 270°
2026-05-05 21:10 40.94616 6.69092 34927 ft 428 kts 270°
2026-05-05 21:11 40.95073 6.61244 34924 ft 428 kts 269°
2026-05-05 21:11 40.95524 6.53395 34928 ft 428 kts 269°
2026-05-05 21:12 40.95970 6.45551 34930 ft 428 kts 269°
2026-05-05 21:12 40.96411 6.37702 34933 ft 428 kts 269°
2026-05-05 21:13 40.96846 6.29848 34927 ft 428 kts 269°
2026-05-05 21:13 40.97280 6.21931 34925 ft 428 kts 269°
2026-05-05 21:14 40.97705 6.14070 34923 ft 429 kts 269°
2026-05-05 21:14 40.98126 6.06202 34923 ft 429 kts 269°
2026-05-05 21:15 40.98541 5.98333 34923 ft 429 kts 269°
2026-05-05 21:15 40.98950 5.90466 34924 ft 428 kts 269°
2026-05-05 21:16 40.99353 5.82610 34921 ft 428 kts 269°
2026-05-05 21:16 40.99752 5.74750 34921 ft 427 kts 269°
2026-05-05 21:17 41.00144 5.66904 34920 ft 427 kts 269°
2026-05-05 21:17 41.00530 5.59070 34923 ft 426 kts 269°
2026-05-05 21:18 41.00910 5.51249 34921 ft 426 kts 268°
2026-05-05 21:18 41.01286 5.43435 34918 ft 425 kts 268°
2026-05-05 21:19 41.01663 5.35625 34918 ft 425 kts 269°
2026-05-05 21:19 41.02076 5.27822 34916 ft 425 kts 269°
2026-05-05 21:20 41.02487 5.20026 34916 ft 424 kts 269°
2026-05-05 21:20 41.02889 5.12237 34917 ft 424 kts 269°
2026-05-05 21:21 41.03282 5.04454 34918 ft 424 kts 269°
2026-05-05 21:21 41.03671 4.96668 34917 ft 423 kts 269°
2026-05-05 21:22 41.04057 4.88831 34917 ft 423 kts 268°
2026-05-05 21:22 41.04435 4.81056 34916 ft 423 kts 268°
2026-05-05 21:23 41.05047 4.73281 34920 ft 426 kts 272°
2026-05-05 21:23 41.05928 4.65519 34922 ft 426 kts 272°
2026-05-05 21:24 41.06746 4.57757 34923 ft 425 kts 272°
2026-05-05 21:24 41.07555 4.49984 34918 ft 426 kts 272°
2026-05-05 21:25 41.08381 4.42221 34918 ft 426 kts 272°
2026-05-05 21:25 41.09215 4.34437 34914 ft 426 kts 272°
2026-05-05 21:26 41.10041 4.26649 34918 ft 427 kts 272°
2026-05-05 21:26 41.10862 4.18852 34912 ft 427 kts 272°
2026-05-05 21:27 41.11677 4.11048 34916 ft 428 kts 272°
2026-05-05 21:27 41.12487 4.03236 34918 ft 428 kts 272°
2026-05-05 21:28 41.13293 3.95411 34923 ft 428 kts 272°
2026-05-05 21:28 41.14095 3.87575 34924 ft 428 kts 272°
2026-05-05 21:29 41.14892 3.79743 34921 ft 429 kts 272°
2026-05-05 21:29 41.15681 3.71903 34923 ft 428 kts 272°
2026-05-05 21:30 41.16328 3.65341 34922 ft 428 kts 272°
2026-05-05 21:30 41.17096 3.57508 34922 ft 428 kts 272°
2026-05-05 21:31 41.17859 3.49692 34922 ft 427 kts 272°
2026-05-05 21:31 41.18616 3.41889 34922 ft 426 kts 272°
2026-05-05 21:32 41.19379 3.34105 34920 ft 425 kts 272°
2026-05-05 21:32 41.20138 3.26328 34919 ft 424 kts 272°
2026-05-05 21:33 41.20889 3.18567 34919 ft 424 kts 272°
2026-05-05 21:33 41.21631 3.10813 34916 ft 423 kts 272°
2026-05-05 21:34 41.22365 3.03058 34918 ft 423 kts 272°
2026-05-05 21:34 41.23095 2.95296 34923 ft 423 kts 272°
2026-05-05 21:35 41.23825 2.87481 34915 ft 424 kts 272°
2026-05-05 21:35 41.24545 2.79708 34918 ft 424 kts 272°
2026-05-05 21:36 41.25262 2.71924 34920 ft 425 kts 272°
2026-05-05 21:36 41.25974 2.64129 34925 ft 425 kts 272°
2026-05-05 21:37 41.26681 2.56328 34929 ft 425 kts 272°
2026-05-05 21:37 41.27383 2.48522 34930 ft 426 kts 272°
2026-05-05 21:38 41.28080 2.40711 34933 ft 426 kts 272°
2026-05-05 21:38 41.28842 2.32102 34937 ft 426 kts 272°
2026-05-05 21:39 41.29526 2.24328 34942 ft 426 kts 272°
2026-05-05 21:39 41.30207 2.16500 34941 ft 426 kts 272°
2026-05-05 21:40 41.30331 2.08699 34946 ft 421 kts 264°
2026-05-05 21:40 41.29623 2.00957 34950 ft 418 kts 259°
2026-05-05 21:41 41.28720 1.93305 34934 ft 419 kts 259°
2026-05-05 21:41 41.27831 1.85657 34943 ft 419 kts 259°
2026-05-05 21:42 41.26949 1.77997 34943 ft 420 kts 259°
2026-05-05 21:42 41.26061 1.70330 34945 ft 420 kts 259°
2026-05-05 21:43 41.25158 1.62666 34938 ft 420 kts 259°
2026-05-05 21:43 41.24244 1.54997 34953 ft 420 kts 259°
2026-05-05 21:44 41.23326 1.47330 34956 ft 420 kts 259°
2026-05-05 21:44 41.22405 1.39669 34961 ft 420 kts 259°
2026-05-05 21:45 41.21478 1.32010 34962 ft 420 kts 259°
2026-05-05 21:45 41.20547 1.24349 34968 ft 420 kts 259°
2026-05-05 21:46 41.19611 1.16690 34966 ft 420 kts 259°
2026-05-05 21:46 41.18673 1.09042 34967 ft 420 kts 259°
2026-05-05 21:47 41.17731 1.01391 34967 ft 420 kts 259°
2026-05-05 21:47 41.16784 0.93732 34964 ft 420 kts 259°
2026-05-05 21:48 41.15832 0.86073 34961 ft 421 kts 259°
2026-05-05 21:48 41.14874 0.78416 34964 ft 421 kts 259°
2026-05-05 21:49 41.13906 0.70707 34969 ft 421 kts 259°
2026-05-05 21:49 41.12940 0.63043 34962 ft 421 kts 259°
2026-05-05 21:50 41.11979 0.55377 34975 ft 421 kts 259°
2026-05-05 21:50 41.11013 0.47707 34971 ft 422 kts 259°
2026-05-05 21:51 41.10025 0.40047 34975 ft 422 kts 259°
2026-05-05 21:51 41.09022 0.32383 34980 ft 422 kts 259°
2026-05-05 21:52 41.07511 0.20880 34980 ft 422 kts 259°
2026-05-05 21:53 41.06499 0.13212 34983 ft 422 kts 259°
2026-05-05 21:53 41.05482 0.05546 34986 ft 423 kts 259°
2026-05-05 21:54 41.04458 -0.02128 34989 ft 423 kts 259°
2026-05-05 21:54 41.03429 -0.09803 34989 ft 423 kts 259°
2026-05-05 21:55 41.02395 -0.17478 34989 ft 424 kts 259°
2026-05-05 21:55 41.01353 -0.25166 34995 ft 424 kts 258°
2026-05-05 21:56 40.99820 -0.32689 34998 ft 424 kts 250°
2026-05-05 21:56 40.97806 -0.40015 35002 ft 424 kts 250°
2026-05-05 21:57 40.95806 -0.47356 35004 ft 424 kts 251°
2026-05-05 21:57 40.93799 -0.54750 35006 ft 425 kts 251°
2026-05-05 21:58 40.91800 -0.62105 35000 ft 425 kts 251°
2026-05-05 21:58 40.89796 -0.69453 35009 ft 425 kts 251°
2026-05-05 21:59 40.87405 -0.76578 35010 ft 427 kts 240°
2026-05-05 21:59 40.83795 -0.82832 35011 ft 431 kts 230°
2026-05-05 22:00 40.79265 -0.88076 35010 ft 434 kts 224°
2026-05-05 22:00 40.74571 -0.93100 35016 ft 435 kts 223°
2026-05-05 22:01 40.69884 -0.98137 35017 ft 435 kts 224°
2026-05-05 22:01 40.66006 -1.02338 35018 ft 434 kts 224°
2026-05-05 22:02 40.61343 -1.07404 35016 ft 434 kts 224°
2026-05-05 22:02 40.56692 -1.12456 35022 ft 434 kts 224°
2026-05-05 22:03 40.52036 -1.17504 35018 ft 434 kts 224°
2026-05-05 22:03 40.47355 -1.22568 35021 ft 433 kts 224°
2026-05-05 22:04 40.42700 -1.27593 35014 ft 433 kts 224°
2026-05-05 22:04 40.38051 -1.32604 35018 ft 432 kts 224°
2026-05-05 22:05 40.33403 -1.37604 35015 ft 432 kts 224°
2026-05-05 22:05 40.28750 -1.42600 35015 ft 432 kts 224°
2026-05-05 22:06 40.24093 -1.47592 35014 ft 433 kts 224°
2026-05-05 22:06 40.19429 -1.52582 35022 ft 434 kts 224°
2026-05-05 22:07 40.14747 -1.57582 35034 ft 435 kts 224°
2026-05-05 22:07 40.10055 -1.62582 35023 ft 435 kts 224°
2026-05-05 22:08 40.00950 -1.72261 35030 ft 435 kts 224°
2026-05-05 22:08 39.77537 -1.96989 34982 ft 434 kts 224°
2026-05-05 22:09 39.39758 -2.36434 34980 ft 432 kts 224°
2026-05-05 22:09 39.02182 -2.75108 34986 ft 432 kts 223°
2026-05-05 22:10 38.64350 -3.13509 34989 ft 435 kts 222°
2026-05-05 22:10 38.26335 -3.51551 34980 ft 437 kts 222°
2026-05-05 22:10 38.05526 -3.68550 34935 ft 454 kts 207°
2026-05-05 22:11 37.82333 -3.81038 34949 ft 450 kts 209°
2026-05-05 22:11 37.36867 -4.06490 34971 ft 448 kts 208°
2026-05-05 22:12 36.91043 -4.31730 34951 ft 450 kts 208°
2026-05-05 22:12 36.48295 -4.63234 34976 ft 449 kts 216°
2026-05-05 22:13 36.06028 -4.96389 35001 ft 454 kts 216°
2026-05-05 22:13 35.62861 -5.29611 35006 ft 459 kts 214°
2026-05-05 22:14 35.21421 -5.65855 35029 ft 459 kts 218°
2026-05-05 22:14 34.80314 -6.02838 35131 ft 456 kts 222°
2026-05-05 22:15 34.72125 -6.11112 35060 ft 459 kts 221°
2026-05-05 22:15 34.67172 -6.16010 35037 ft 459 kts 221°
2026-05-05 22:16 34.62190 -6.20916 35035 ft 458 kts 221°
2026-05-05 22:16 34.57234 -6.25794 35034 ft 457 kts 221°
2026-05-05 22:17 34.52290 -6.30655 35035 ft 457 kts 221°
2026-05-05 22:17 34.46807 -6.34460 35023 ft 461 kts 199°
2026-05-05 22:18 34.40600 -6.36501 35034 ft 463 kts 198°
2026-05-05 22:18 34.34376 -6.38590 35042 ft 465 kts 199°
2026-05-05 22:19 34.32302 -6.39305 35043 ft 465 kts 199°
2026-05-05 22:21 34.27107 -6.41117 35035 ft 466 kts 200°
2026-05-05 22:22 34.20982 -6.43264 34938 ft 467 kts 200°
2026-05-05 22:22 34.17822 -6.44373 33866 ft 478 kts 199°
2026-05-05 22:22 34.14643 -6.45484 32884 ft 475 kts 199°
2026-05-05 22:22 34.11496 -6.46577 31878 ft 464 kts 199°
2026-05-05 22:23 34.11282 -6.46652 31823 ft 464 kts 199°
2026-05-05 22:23 34.09990 -6.47100 31416 ft 460 kts 199°
2026-05-05 22:23 34.06937 -6.48163 30516 ft 453 kts 199°
2026-05-05 22:24 34.03945 -6.49205 29825 ft 442 kts 199°
2026-05-05 22:24 34.01007 -6.50227 29102 ft 436 kts 199°
2026-05-05 22:24 33.98123 -6.51313 28469 ft 435 kts 205°
2026-05-05 22:24 33.95497 -6.53147 27811 ft 442 kts 223°
2026-05-05 22:25 33.93284 -6.55748 27152 ft 447 kts 227°
2026-05-05 22:25 33.91121 -6.58395 26430 ft 437 kts 227°
2026-05-05 22:25 33.89010 -6.60939 25787 ft 423 kts 227°
2026-05-05 22:25 33.86955 -6.63379 25154 ft 409 kts 227°
2026-05-05 22:26 33.84953 -6.65737 24574 ft 397 kts 227°
2026-05-05 22:26 33.82992 -6.68036 24003 ft 389 kts 227°
2026-05-05 22:26 33.81053 -6.70307 23390 ft 390 kts 227°
2026-05-05 22:26 33.79095 -6.72600 22754 ft 401 kts 227°
2026-05-05 22:27 33.77061 -6.74983 22147 ft 412 kts 227°
2026-05-05 22:27 33.75021 -6.77363 21530 ft 403 kts 226°
2026-05-05 22:27 33.73042 -6.79667 20942 ft 392 kts 226°
2026-05-05 22:27 33.71094 -6.81938 20408 ft 389 kts 226°
2026-05-05 22:28 33.69161 -6.84192 19864 ft 386 kts 226°
2026-05-05 22:28 33.67239 -6.86430 19314 ft 384 kts 226°
2026-05-05 22:28 33.65276 -6.88616 18762 ft 380 kts 220°
2026-05-05 22:28 33.62969 -6.90184 18217 ft 382 kts 204°
2026-05-05 22:29 33.60458 -6.91187 17630 ft 380 kts 201°
2026-05-05 22:29 33.57947 -6.92139 17071 ft 377 kts 201°
2026-05-05 22:29 33.55453 -6.93086 16542 ft 375 kts 201°
2026-05-05 22:29 33.52979 -6.94036 16010 ft 372 kts 201°
2026-05-05 22:30 33.50523 -6.94990 15490 ft 369 kts 201°
2026-05-05 22:30 33.48089 -6.95942 15024 ft 367 kts 202°
2026-05-05 22:30 33.46478 -6.96575 14655 ft 366 kts 202°
2026-05-05 22:30 33.43254 -6.97847 13955 ft 363 kts 202°
2026-05-05 22:31 33.40862 -6.98790 13382 ft 361 kts 202°
2026-05-05 22:31 33.39284 -6.99413 13014 ft 359 kts 202°
2026-05-05 22:31 33.36919 -7.00345 12488 ft 356 kts 202°
2026-05-05 22:31 33.34574 -7.01269 11916 ft 354 kts 202°
2026-05-05 22:32 33.32249 -7.02184 11414 ft 350 kts 201°
2026-05-05 22:32 33.29951 -7.03091 11052 ft 343 kts 201°
2026-05-05 22:32 33.27734 -7.03959 10884 ft 329 kts 201°
2026-05-05 22:32 33.25626 -7.04784 10708 ft 304 kts 201°
2026-05-05 22:33 33.23716 -7.05531 10569 ft 273 kts 202°
2026-05-05 22:33 33.22007 -7.06197 10477 ft 244 kts 202°
2026-05-05 22:33 33.20431 -7.06816 10387 ft 242 kts 203°
2026-05-05 22:33 33.18938 -7.07820 10321 ft 254 kts 227°
2026-05-05 22:34 33.17995 -7.09590 10236 ft 251 kts 252°
2026-05-05 22:34 33.17618 -7.11657 10125 ft 258 kts 258°
2026-05-05 22:34 33.17300 -7.13776 9972 ft 259 kts 258°
2026-05-05 22:34 33.16987 -7.15887 9701 ft 257 kts 258°
2026-05-05 22:35 33.16675 -7.17977 9259 ft 254 kts 258°
2026-05-05 22:35 33.16360 -7.20046 8916 ft 253 kts 258°
2026-05-05 22:35 33.16039 -7.22124 8597 ft 255 kts 258°
2026-05-05 22:35 33.15715 -7.24209 8307 ft 255 kts 258°
2026-05-05 22:36 33.15390 -7.26289 8020 ft 255 kts 258°
2026-05-05 22:36 33.15065 -7.28371 7740 ft 255 kts 259°
2026-05-05 22:36 33.14739 -7.30457 7451 ft 256 kts 259°
2026-05-05 22:36 33.14413 -7.32534 7137 ft 255 kts 259°
2026-05-05 22:37 33.14087 -7.34615 6485 ft 255 kts 259°
2026-05-05 22:37 33.13762 -7.36685 5716 ft 252 kts 259°
2026-05-05 22:37 33.13448 -7.38692 5389 ft 234 kts 259°
2026-05-05 22:37 33.13157 -7.40545 5380 ft 224 kts 259°
2026-05-05 22:38 33.12869 -7.42373 5405 ft 227 kts 259°
2026-05-05 22:38 33.12566 -7.44288 5314 ft 240 kts 259°
2026-05-05 22:38 33.12260 -7.46227 5254 ft 235 kts 259°
2026-05-05 22:38 33.12044 -7.48102 5048 ft 222 kts 272°
2026-05-05 22:39 33.12549 -7.49758 4611 ft 207 kts 309°
2026-05-05 22:39 33.13647 -7.50694 4142 ft 187 kts 334°
2026-05-05 22:39 33.14774 -7.51302 4024 ft 175 kts 336°
2026-05-05 22:39 33.15903 -7.51892 4064 ft 177 kts 338°
2026-05-05 22:40 33.17049 -7.52405 4049 ft 175 kts 341°
2026-05-05 22:40 33.18208 -7.52846 4021 ft 177 kts 343°
2026-05-05 22:40 33.19418 -7.53274 3841 ft 177 kts 345°
2026-05-05 22:40 33.20605 -7.53684 3604 ft 174 kts 345°
2026-05-05 22:41 33.21764 -7.54081 3407 ft 172 kts 346°
2026-05-05 22:41 33.22908 -7.54472 3167 ft 171 kts 346°
2026-05-05 22:41 33.24050 -7.54862 2945 ft 171 kts 346°
2026-05-05 22:41 33.25179 -7.55248 2721 ft 165 kts 346°
2026-05-05 22:42 33.26245 -7.55616 2459 ft 155 kts 346°
2026-05-05 22:42 33.27242 -7.55962 2263 ft 144 kts 347°
2026-05-05 22:42 33.28223 -7.56293 2138 ft 148 kts 347°
2026-05-05 22:42 33.29212 -7.56646 1891 ft 147 kts 346°
2026-05-05 22:43 33.30183 -7.56966 1637 ft 144 kts 347°
2026-05-05 22:43 33.31154 -7.57296 1432 ft 146 kts 346°
2026-05-05 22:43 33.32127 -7.57630 1323 ft 145 kts 345°
2026-05-05 22:43 33.33111 -7.57971 1119 ft 148 kts 346°
2026-05-05 22:44 33.34096 -7.58310 907 ft 145 kts 346°
2026-05-05 22:44 33.35055 -7.58637 748 ft 146 kts 347°
2026-05-05 22:44 33.36038 -7.58974 666 ft 137 kts 346°
2026-05-05 22:44 33.36841 -7.59241 659 ft 98 kts 344°
2026-05-05 22:45 33.37356 -7.59419 661 ft 65 kts 343°
2026-05-05 22:45 33.37730 -7.59547 660 ft 41 kts 344°
2026-05-05 22:45 33.37999 -7.59639 657 ft 38 kts 344°
2026-05-05 22:45 33.38184 -7.59701 653 ft 25 kts 344°
2026-05-05 22:46 33.38292 -7.59705 656 ft 13 kts 41°
2026-05-05 22:46 33.38328 -7.59602 652 ft 13 kts 74°
2026-05-05 22:46 33.38343 -7.59540 648 ft 0 kts 73°
2026-05-05 22:47 33.38346 -7.59528 648 ft 5 kts 73°
2026-05-05 22:47 33.38359 -7.59475 647 ft 10 kts 73°
2026-05-05 22:47 33.38401 -7.59302 649 ft 29 kts 74°
2026-05-05 22:48 33.38451 -7.59084 648 ft 24 kts 83°
2026-05-05 22:48 33.38335 -7.58971 649 ft 24 kts 163°
2026-05-05 22:48 33.38177 -7.58917 652 ft 24 kts 164°
2026-05-05 22:48 33.38018 -7.58863 653 ft 24 kts 164°
2026-05-05 22:49 33.37860 -7.58808 656 ft 24 kts 165°
2026-05-05 22:49 33.37701 -7.58756 657 ft 24 kts 165°
2026-05-05 22:49 33.37542 -7.58701 656 ft 24 kts 163°
2026-05-05 22:49 33.37384 -7.58645 659 ft 24 kts 164°
2026-05-05 22:50 33.37226 -7.58591 661 ft 24 kts 164°
2026-05-05 22:50 33.37067 -7.58537 657 ft 24 kts 164°
2026-05-05 22:50 33.36909 -7.58482 658 ft 24 kts 164°
2026-05-05 22:50 33.36751 -7.58428 659 ft 24 kts 164°
2026-05-05 22:51 33.36587 -7.58372 660 ft 25 kts 163°
2026-05-05 22:51 33.36418 -7.58314 661 ft 25 kts 164°
2026-05-05 22:51 33.36262 -7.58242 661 ft 23 kts 125°
2026-05-05 22:51 33.36243 -7.58067 663 ft 22 kts 147°
2026-05-05 22:52 33.36125 -7.58032 664 ft 8 kts 135°
2026-05-05 22:52 33.36115 -7.57972 664 ft 0 kts 91°
2026-05-05 22:52 33.36119 -7.57960 664 ft 0 kts 71°